Location: Santa Cristina
(46.5667°N, 11.7167°E)
Time: 16:55:22
(UTC+00:00)

Meteor 2-20 - Pass Details

Date: 21 April 2021
Orbit: 939 x 958 km, 82.5° (Epoch: 11 May)

Event Time Altitude Azimuth Distance (km) Brightness Sun altitude
Exits shadow 02:54:08 - 188° (S) 3,219 6.8 -13.3°
Reaches altitude 10° 02:55:34 10° 188° (S) 2,674 6.4 -13.1°
Maximum altitude 03:01:42 88° 277° (W) 964 4.5 -12.2°
Drops below altitude 10° 03:07:55 10° 9° (N) 2,701 7.4 -11.3°
Sets 03:10:26 0° 10° (N) 3,652 8.1 -11.0°
